Regional Weather Roundup
Issued by NWS

Home | Current Version | Previous Version | Text Only | Print | Product List | Glossary On
Versions: 1 2 3 4 5 6 7 8 9 10 11 12 13 14 15 16 17 18 19 20 21 22 23 24 25 26 27 28 29 30 31 32 33 34 35 36 37 38 39 40 41 42 43 44 45 46 47 48 49 50
000
ASUS43 KTOP 291208
RWRKS

WEATHER ROUNDUP FOR KANSAS
NATIONAL WEATHER SERVICE GOODLAND KS
700 AM CDT MON AUG 29 2016

NOTE:  "FAIR" INDICATES FEW OR NO CLOUDS BELOW 12,000 FEET WITH NO
SIGNIFICANT WEATHER AND/OR OBSTRUCTIONS TO VISIBILITY.

KSZ001>006-013>018-027>032-041>047-291300-
NORTHWEST KANSAS

CITY           SKY/WX    TMP DP  RH WIND       PRES   REMARKS
GOODLAND       CLOUDY    59  57  93 W6        30.19R
6HR MIN TEMP:  58; 6HR MAX TEMP:  66;

HAYS           CLOUDY    66  57  72 E5        30.16R
HILL CITY      FOG       66  66 100 CALM      30.17R VSB 1/4
6HR MIN TEMP:  66; 6HR MAX TEMP:  70; 6HR PCP: TRACE;

RUSSELL        PTCLDY    65  64  97 W6        30.14R
6HR MIN TEMP:  65; 6HR MAX TEMP:  69;

$$

KSZ061>065-074>080-084>089-291300-
SOUTHWEST KANSAS

CITY           SKY/WX    TMP DP  RH WIND       PRES   REMARKS
DODGE CITY     CLOUDY    66  65  96 SE7       30.17F FOG
6HR MIN TEMP:  64; 6HR MAX TEMP:  67;

ELKHART          N/A     66  61  84 SW7         N/A
GARDEN CITY    LGT RAIN  65  63  93 SE10      30.17R FOG
6HR MIN TEMP:  62; 6HR MAX TEMP:  65; 6HR PCP:  0.01;

GREAT BEND     PTCLDY    66  61  82 CALM      30.15R
LIBERAL        CLOUDY    68  63  83 CALM      30.19S
PRATT          CLOUDY    65  64  93 CALM      30.16R
6HR MIN TEMP:  64; 6HR MAX TEMP:  68;

$$

KSZ066>073-081>083-090>101-291300-
SOUTHEAST KANSAS

CITY           SKY/WX    TMP DP  RH WIND       PRES   REMARKS
CHANUTE        CLEAR     68  67  96 CALM      30.14R FOG
6HR MIN TEMP:  68; 6HR MAX TEMP:  73;

COFFEYVILLE    CLEAR     69  68  96 CALM      30.13R
6HR MIN TEMP:  69; 6HR MAX TEMP:  75;

HUTCHINSON     CLEAR     68  66  93 CALM      30.14R
6HR MIN TEMP:  68; 6HR MAX TEMP:  71;

MEDICINE LODGE   N/A     67  66  97 W3        30.13R
NEWTON         CLEAR     69  68  96 SE7       30.15R FOG
PARSONS        CLEAR     70  68  93 CALM      30.15R
6HR MIN TEMP:  68; 6HR MAX TEMP:  71;

WICHITA INTL   MOCLDY    71  68  90 CALM      30.13R
6HR MIN TEMP:  70; 6HR MAX TEMP:  76;

WICHITA JABRA  CLEAR     69  69 100 CALM      30.14R FOG
6HR MIN TEMP:  68; 6HR MAX TEMP:  74;

WICHITA MCCONL CLEAR     71  68  89 SE6       30.13R
WINFIELD       CLEAR     71  67  87 E3        30.14R
6HR MIN TEMP:  71; 6HR MAX TEMP:  75;

$$

KSZ007>012-019>026-033>040-048>060-102>105-291300-
NORTHEAST KANSAS

CITY           SKY/WX    TMP DP  RH WIND       PRES   REMARKS
CONCORDIA      PTCLDY    65  64  97 SE3       30.15R
6HR MIN TEMP:  65; 6HR MAX TEMP:  69;

EMPORIA        CLEAR     68  67  96 SE6       30.14R
6HR MIN TEMP:  67; 6HR MAX TEMP:  73;

LAWRENCE       PTCLDY    68  67  96 E5        30.15R
6HR MIN TEMP:  67; 6HR MAX TEMP:  71;

MANHATTAN      CLEAR     70  69  97 CALM      30.13R
6HR MIN TEMP:  69; 6HR MAX TEMP:  73;

MARYSVILLE     MOCLDY    68  68 100 CALM      30.15R
OLATHE IND     CLEAR     72  70  93 CALM      30.16R
6HR MIN TEMP:  70; 6HR MAX TEMP:  73;

OLATHE EXE     PTCLDY    69  69 100 E3        30.16R
6HR MIN TEMP:  69; 6HR MAX TEMP:  73;

SALINA         CLEAR     71  69  93 SW3       30.14R
6HR MIN TEMP:  71; 6HR MAX TEMP:  76;

TOPEKA BILLARD CLEAR     70  68  93 E3        30.14R
6HR MIN TEMP:  70; 6HR MAX TEMP:  75;

TOPEKA FORBES  CLEAR     70  68  93 SE3       30.14R
6HR MIN TEMP:  70; 6HR MAX TEMP:  76;

$$




USA.gov is the U.S. government's official web portal to all federal, state and local government web resources and services.